Погода в Нозовке

Погода в Нозовке : погода сейчас, прогноз погоды и архив. Всё, что Вы хотите узнать о погоде в Нозовке!

Поиск расширенной информации на нашем сайте:

Полезная информация: Алфавитный перечень дезсредств.

Другие новости

Новости СМИ2

Главная страница сайта

Новости сайта

02.10.2013

Напоминаем, что на нашем новом сайте вы можете получить высокодетализированные прогнозы погоды по пунктам России, СНГ и мира (включающие важные для авиации метеовеличины, такие как направление и скорость ветра, видимость, явления погоды, количество и форма облачности, нижняя и верхняя граница облачности), а также ознакомиться с разнообразными материалами по авиационной метеорологии и подборкой полезных ссылок на эту тему.

Сайт Метеоцентр.Азия посвящён разработке технологий оптимизации авиаметеорологического обслуживания, включая проектирование и перспективное создание нескольких автоматизированных авиаметеорологических систем:
- система выпуска высокодетальных прогностических карт явлений погоды для нижнего воздушного пространства по России и ближнему зарубежью;
- система верификации прогнозов TAF (выпускаемых синоптиками официальных АМСГ РФ и ближнего зарубежья) и AUTOTAF (выпускаемых сайтом Метеоцентр.Азия) - выявление ошибок, онлайн-сопоставление с фактической погодой METAR, автоматическое внесение коррективов в прогнозы при резком отклонении фактической погоды от прогноза, подсчёт оправдываемости прогнозов по элементам и в целом;
- система обработки, анализа и отображения авиаметеорологической информации для применения провайдерами метеорологической информации.

Рекомендуем: Купить clean point можно выгодно!

Погода в Нозовке - сегодня

Время (UTC), дата Ветер
(°,м/с) 
Видим.   Явления Облачность Т
(°С)
Тd
(°С)
f(%) Тe
(°С)
Pmin
(гПа)
dP
(гПа)
Po
(мм)
O2
(г/м3)
Тmin Tmax R s Состояние
почвы
12 25.03.17 140 (ЮВ) 5{11}  4000 м  слаб. снег  10/10 300 м 
[Ns]
-0.5 -2.2 88 -4  1003.7  -3.1  741  299           
15 25.03.17 150 (ЮВ) 4000 м  слаб. снег  10/10 300 м 
[Ns]
-0.1 -1.2 92 -3  1000.9  -2.7  738  298    +1.8     
18 25.03.17 170 (Ю) 4000 м  слаб. снег  10/10 300 м 
[Ns]
+0.6 -0.4 93 999.8  -1  738  297           
21 25.03.17 200 (Ю) 4000 м  слаб. снег  10/10 300 м 
[Ns]
+0.8 -0.3 92 -1  999.9  738  296           
00 26.03.17 210 (ЮЗ) 20000 м  {снег}  10/10 300 м 
[Sc]
+0.2 -1.1 91 -2  1000.9  739  297           
03 26.03.17 160 (Ю) 20000 м    8/6 600 м средняя 
[Sc|Ac und]
-0.3 -1.7 90 1001.2  0.3  739  298  -0.6    63  равномерный
сухой снег
100% 
06 26.03.17 220 (ЮЗ) 4000 м  слаб. ливневой снег  9/8 600 м кучево-дожд., средняя 
[Cb cap|Ac und]
+0.2 -1.7 87 -2  1001.4  0.2  739  298           
09 26.03.17 230 (ЮЗ) 6-11{11}  4000 м  слаб. ливневой снег  9/5 600 м кучево-дожд., средняя 
[Cb cap|Ac und]
+0.4 -3.4 76 -3  1002.2  0.8  740  298           
12 26.03.17 220 (ЮЗ) 6{12}  4000 м  слаб. снег{ливн. осадки}  10/10 600 м 
[Ns]
-1.6 -5.2 76 -5  1003.2  0.8  740  301           
15 26.03.17 210 (ЮЗ) 4{11}  4000 м  слаб. снег  10/10 300 м 
[Ns]
-1.5 -3.6 86 -4  1001.6  -1.5  739  300    +1  0.8     
18 26.03.17 240 (ЮЗ) 7-11{11}  4000 м  слаб. снег  10/10 300 м 
[Ns]
-0.1 -1.8 88 -4  1001.1  -0.4  739  298           
21 26.03.17 240 (ЮЗ) 6{11}  4000 м  слаб. снег  10/10 300 м 
[Ns]
-0.5 -2.8 84 -4  1001.9  0.7  739  299           
00 27.03.17 240 (ЮЗ) 20000 м  {снег}  10/10 600 м 
[Sc]
-0.8 -4.9 74 -3  1001.8  -0.1  739  299           
03 27.03.17 220 (ЮЗ) 20000 м    9/8 600 м средняя 
[Sc|Ac und]
-1.3 -5.4 74 -4  1001.2  -0.5  739  300  -1.8    0.5  64  равномерный
сухой снег
100% 
06 27.03.17 190 (Ю) 20000 м    9/6 600 м средняя 
[Sc|Ac und]
+0.8 -5.6 62 -1  1000.8  -0.3  738  297           
09 27.03.17 210 (ЮЗ) 5-10{12}  20000 м    6/6 600 м 
[Cu med, cong]
+4 -7.1 44 +2  1000.2  -0.4  738  294           
12 27.03.17 210 (ЮЗ) 5-10{13}  20000 м    8/4 600 м средняя 
[Sc|Ac und]
+3.6 -7.9 43 +1  999.7  -0.5  738  294           
15 27.03.17 200 (Ю) 3{12}  20000 м    8/3 600 м средняя 
[Sc|Ac lent]
+1.8 -6.9 52 999.8  738  296    +4.4       
18 27.03.17 200 (Ю) 20000 м    ясно 
+1 -6.9 56 -1  999.8  0.1  738  297           
21 27.03.17 190 (Ю) 20000 м    5/5 2000 м средняя 
[Ac und]
-0.5 -5.9 67 -2  998.5  -1.3  737  298           
00 28.03.17 160 (Ю) 4000 м  слаб. снег  10/10 600 м 
[Ns]
-1.5 -3.4 87 -3  996.6  -1.9  735  298           
03 28.03.17 160 (Ю) 4000 м  слаб. снег  10/10 300 м 
[Ns]
-1 -3.3 84 -3  994.2  -2.4  734  297  -1.5    0.4  64  равномерный
сухой снег
100% 
06 28.03.17 180 (Ю) 20000 м  {снег}  10/10 600 м 
[Sc]
+0.3 -2.6 81 -1  991.9  -2.1  732  295           
09 28.03.17 210 (ЮЗ) 20000 м    8/5 600 м средняя 
[Sc|Ac und]
+2 -3.9 65 990.6  -1.2  731  293           
12 28.03.17 230 (ЮЗ) 4{10}  20000 м  {ливн. осадки}  8/5 600 м кучево-дожд., средняя 
[Cb cap|Ac und]
+1.7 -3.6 68 990.3  -0.4  731  293           
Время (UTC), дата Ветер
(°,м/с) 
Видим.   Явления Облачность Т
(°С)
Тd
(°С)
f(%) Тe
(°С)
Pmin
(гПа)
dP
(гПа)
Po
(мм)
O2
(г/м3)
Тmin Tmax R s Состояние
почвы

Для получения пояснительной информации подведите курсор к названию столбца.

ПОГОДА в Нозовке - архив

Всё, что Вы хотите узнать о погоде в Нозовке - удобно и подробно!

Выберите нужную дату (начиная с 1 января 2015* года) и нажмите кнопку "Найти".
Будут отображены архивные сводки погоды по пункту Нозовка, начиная с указанной даты.


Отображать данные в формате CSV (для использования в таблицах Excel)


Внимание! Наш архив погоды предназначен исключительно для личного некоммерческого использования в познавательных целях. Если Вам необходимы официальные справки о состоянии погоды (для производственных, юридических, коммерческих и т.п. целей), обращайтесь в органы Росгидромета.

*Примечание: данная дата относится к архиву по метеостанциям СССР (Россия, СНГ, Балтия).
Архив по метеостанциям Зарубежной Европы и Азии (кроме Китая) хранится 10 дней, по другим регионам земного шара (Китай, Африка, Америка, Австралия, Океания) - 1 день.

Нозовка - район местоположения метеостанции


Название, широта, долгота, высота метеостанции:
Нозовка 57.1°ш. 54.8°д. 131 м над ур. моря [Российская Федерация]

Дополнительная информация

В oтличие oт бoльшинства пoгoдных сайтoв мы публикуем пoдрoбную метеoинфoрмацию в детальнoм прoфессиoнальнoм фoрмате.

Характеристики температуры и влажнoсти вoздуха измеряются на высoте 2 м в тени вдали oт зданий и деревьев.
Скoрoсть ветра измеряется на высoте 10 м (на урoвне рoста челoвека скoрoсть ветра ниже в 1.5-2 раза). Если метеoстанция нахoдится в гoрoде или в лесу, тo скoрoсть ветра занижена на 2-4 м/с пo сравнению с oткрытым местoм. Скoрoсть ветра над акватoриями крупных рек и oзёр, а также на вершинах хoлмoв на 2-5 м/с выше, чем в oбычных услoвиях.
Атмoсфернoе давление в разных тoчках местнoсти мoжет значительнo oтличаться oт давления на метеoстанции, в зависимoсти oт услoвий рельефа (при пoдъёме на 10 м давление пoнижается примернo на 1 мм рт.ст.).